Location: Unspecified
(0.0000°N, 0.0000°E)
Time: 12:51:52
(UTC+00:00)

NNS O-23 - Pass Details

Date: 05 June 2023
Orbit: 1014 x 1297 km, 90.3° (Epoch: 23 September)

Event Time Altitude Azimuth Distance (km) Brightness Sun altitude
Rises 18:09:00 0° 3° (N) 3,924 11.4 -2.4°
Reaches altitude 10° 18:11:37 10° 3° (N) 2,931 10.8 -3.0°
Maximum altitude 18:18:17 86° 275° (W) 1,054 8.3 -4.6°
Drops below altitude 10° 18:24:41 10° 186° (S) 2,812 10.2 -6.0°
Sets 18:27:09 0° 185° (S) 3,754 10.9 -6.6°
